Regional Weather Roundup
Issued by NWS Burlington, VT

Home | Current Version | Previous Version | Text Only | Print | Product List | Glossary On
Versions: 1 2 3 4 5 6 7 8 9 10 11 12 13 14 15 16 17 18 19 20 21 22 23 24 25 26 27 28 29 30 31 32 33 34 35 36 37 38 39 40 41 42 43 44 45 46 47 48 49 50
000
ASUS41 KBTV 092330
RWRBTV
VERMONT REGIONAL WEATHER ROUNDUP
NATIONAL WEATHER SERVICE BURLINGTON VT
600 PM EST TUE FEB 09 2016

NOTE: "FAIR" INDICATES FEW OR NO CLOUDS BELOW 12,000 FEET WITH NO
SIGNIFICANT WEATHER AND/OR OBSTRUCTIONS TO VISIBILITY.

* THESE REPORTS ARE NOT UNDER NWS QUALITY CONTROL AND/OR DO NOT
  REPORT WEATHER SUCH AS PRECIPITATION AND FOG.

VTZ001>019-100000-
_____VERMONT_____


CITY           SKY/WX    TMP DP  RH WIND       PRES   REMARKS
BURLINGTON     CLOUDY    26  20  77 NW5       29.58R WCI  20
MONTPELIER     CLOUDY    24  15  68 CALM      29.57R
MORRISVILLE    CLOUDY    24  16  71 CALM      29.56R
ST. JOHNSBURY*   N/A     23  14  68 MISG      29.55R
LYNDONVILLE*   FAIR      21  14  75 CALM      29.55R
RUTLAND*       CLOUDY    25  16  68 CALM      29.55R
SPRINGFIELD    MOCLDY    23  17  78 NW3       29.59R
HIGHGATE*      FLURRIES  22  19  86 N5        29.60R WCI  16
NEWPORT*       MOCLDY    19  15  84 NE3       29.56R
BENNINGTON     LGT SNOW  28  20  71 W3        29.55R
SUTTON*          N/A     18 N/A N/A MISG        N/A
MT. MANSFIELD*   N/A     12 N/A N/A NW10        N/A  WCI  -1

_____LAKE CHAMPLAIN_____


CITY           SKY/WX    TMP DP  RH WIND       PRES   REMARKS
COLCHESTER RF*   N/A     28  25  86 NE9         N/A  WCI  20
DIAMOND ISL*     N/A     28  25  86 NW3         N/A

$$

NYZ007-026>031-035-052-083-100000-
_____NORTHERN NEW YORK_____


CITY           SKY/WX    TMP DP  RH WIND       PRES   REMARKS
PLATTSBURGH    CLOUDY    24  19  81 N8        29.59R WCI  15
SARANAC LAKE   LGT SNOW  22  18  85 NE7       29.46R FOG     WCI  13
MASSENA        CLOUDY    22  16  78 NE10      29.61R WCI  11
OGDENSBURG*    FLURRIES  23  19  86 E5        29.57S WCI  17
WATERTOWN      LGT SNOW  26  23  88 NE7       29.55R FOG     WCI  18
ALBANY         LGT SNOW  29  23  78 SW3       29.59R
GLENS FALLS    CLOUDY    27  18  69 CALM      29.58R

$$
NHZ002-005-011-100000-
_____NEW HAMPSHIRE_____


CITY           SKY/WX    TMP DP  RH WIND       PRES   REMARKS
LEBANON        CLOUDY    26  17  68 CALM      29.57R
MT WASHINGTON  CLOUDY     7   3  85 NW15        N/A  WCI -11
PLYMOUTH       CLOUDY    25  17  74 CALM      29.58R
WHITEFIELD     CLOUDY    25  15  66 W6        29.53R WCI  18

$$

_____REGIONAL QUEBEC LOCATIONS_____


CITY           SKY/WX    TMP DP  RH WIND       PRES   REMARKS
MONTREAL       FLURRIES  21  14  73 NE9       29.62R WCI  11
QUEBEC CITY    SNOWSHWR  19  14  79 NE10G17   29.63F WCI   8
SHERBROOKE     CLEAR     18  12  79 NE6       29.56R WCI   9

_____REGIONAL ONTARIO LOCATIONS_____


CITY           SKY/WX    TMP DP  RH WIND       PRES   REMARKS
OTTAWA         FLURRIES  19  14  79 NE7       29.59R WCI  10

______KEY______
VSB  - VISIBILITY IN MILES
WCI  - WIND CHILL INDEX
HX   - HEAT INDEX
$$
NNNN



USA.gov is the U.S. government's official web portal to all federal, state and local government web resources and services.